Weather History for Mineola, TX

Change the Weather History Date:

Monday, September 30, 2013

  Actual Average (KTYR) Record (KTYR)
Temperature  
Mean Temperature 74 °F 72 °F  
Max Temperature 84 °F 83 °F 99 °F (1953)
Min Temperature 64 °F 61 °F 41 °F (1918)
Degree Days  
Heating Degree Days 0 1  
Month to date heating degree days 2  
Since 1 July heating degree days 5  
Cooling Degree Days 9 7  
Month to date cooling degree days 342  
Year to date cooling degree days 2264  
Growing Degree Days 24 (Base 50)    
Moisture  
Dew Point 68 °F    
Average Humidity 84    
Maximum Humidity 100    
Minimum Humidity 48    
Precipitation  
Precipitation 0.00 in 0.10 in 1.46 in (2012)
Month to date precipitation 3.34  
Year to date precipitation 32.60  
Snow  
Snow 0.00 in - - ()
Month to date snowfall  
Since 1 July snowfall  
Since 1 September snowfall  
Snow Depth -    
Sea Level Pressure  
Sea Level Pressure 29.89 in    
Wind  
Wind Speed 1 mph (SSE)    
Max Wind Speed 6 mph    
Max Gust Speed -    
Visibility 8 miles    
Events      
T = Trace of Precipitation, MM = Missing Value Source: NWS Daily Summary

Daily Weather History Graph

Daily Weather History Graph

Search for Another Location

Airport:

Trip Planner

Search our weather history database for the weather conditions in past years. The results will help you decide how hot, cold, wet, or windy it might be!

Date:

Astronomy

Sep. 30, 2013 Rise Set
Actual Time 7:15 AM CDT 7:07 PM CDT
Civil Twilight 6:51 AM CDT 7:32 PM CDT
Nautical Twilight 6:22 AM CDT 8:00 PM CDT
Astronomical Twilight 5:53 AM CDT 8:29 PM CDT
Moon 3:05 AM CDT (9/30) 4:28 PM CDT (9/30)
Length of Visible Light 12h 41m
Length of Day
11h 51m
Waning Crescent, 19% of the Moon is Illuminated
Sep 30
Waning Crescent
Oct 4
New
Oct 11
First Quarter
Oct 18
Full
Oct 26
Last Quarter

Hourly Weather History & Observations

Time (CDT) Temp. Heat Index Dew Point Humidity Pressure Visibility Wind Dir Wind Speed Gust Speed Precip Events Conditions
12:15 AM 71.6 °F - 69.8 °F 94% 29.93 in 10.0 mi SW 4.6 mph - N/A   Clear
12:35 AM 71.6 °F - 69.8 °F 94% 29.93 in 10.0 mi Calm Calm - N/A   Clear
12:55 AM 71.6 °F - 69.8 °F 94% 29.93 in 9.0 mi Calm Calm - N/A   Clear
1:15 AM 69.8 °F - 69.8 °F 100% 29.93 in 10.0 mi Calm Calm - N/A   Clear
1:35 AM 69.8 °F - 69.8 °F 100% 29.93 in 7.0 mi Calm Calm - N/A   Clear
1:55 AM 69.8 °F - 69.8 °F 100% 29.92 in 8.0 mi Calm Calm - N/A   Clear
2:15 AM 68.0 °F - 68.0 °F 100% 29.92 in 5.0 mi Calm Calm - N/A   Clear
2:35 AM 68.0 °F - 68.0 °F 100% 29.92 in 7.0 mi Calm Calm - N/A   Clear
2:55 AM 68.0 °F - 68.0 °F 100% 29.92 in 10.0 mi Calm Calm - N/A   Clear
3:15 AM 66.2 °F - 66.2 °F 100% 29.91 in 6.0 mi Calm Calm - N/A   Clear
3:35 AM 66.2 °F - 66.2 °F 100% 29.91 in 8.0 mi Calm Calm - N/A   Clear
3:55 AM 66.2 °F - 66.2 °F 100% 29.91 in 5.0 mi Calm Calm - N/A   Partly Cloudy
4:15 AM 66.2 °F - 66.2 °F 100% 29.90 in 3.0 mi Calm Calm - N/A   Partly Cloudy
4:35 AM 66.2 °F - 66.2 °F 100% 29.90 in 5.0 mi Calm Calm - N/A   Clear
4:55 AM 66.2 °F - 66.2 °F 100% 29.90 in 5.0 mi Calm Calm - N/A   Partly Cloudy
5:15 AM 64.4 °F - 64.4 °F 100% 29.90 in 4.0 mi Calm Calm - N/A   Scattered Clouds
5:35 AM 66.2 °F - 66.2 °F 100% 29.90 in 5.0 mi Calm Calm - N/A   Mostly Cloudy
5:55 AM 66.2 °F - 66.2 °F 100% 29.90 in 4.0 mi Calm Calm - N/A   Mostly Cloudy
6:15 AM 66.2 °F - 66.2 °F 100% 29.90 in 5.0 mi Calm Calm - N/A   Clear
6:35 AM 64.4 °F - 64.4 °F 100% 29.90 in 6.0 mi Calm Calm - N/A   Clear
6:55 AM 64.4 °F - 64.4 °F 100% 29.90 in 5.0 mi Calm Calm - N/A   Clear
7:15 AM 64.4 °F - 64.4 °F 100% 29.90 in 4.0 mi Calm Calm - N/A   Clear
7:35 AM 64.4 °F - 64.4 °F 100% 29.90 in 3.0 mi Calm Calm - N/A   Clear
7:55 AM 64.4 °F - 64.4 °F 100% 29.91 in 3.0 mi Calm Calm - N/A   Clear
8:15 AM 66.2 °F - 66.2 °F 100% 29.91 in 7.0 mi Calm Calm - N/A   Clear
8:35 AM 68.0 °F - 68.0 °F 100% 29.91 in 7.0 mi Calm Calm - N/A   Clear
8:55 AM 69.8 °F - 69.8 °F 100% 29.91 in 10.0 mi Calm Calm - N/A   Clear
9:15 AM 71.6 °F - 66.2 °F 83% 29.92 in 10.0 mi Calm Calm - N/A   Clear
9:35 AM 73.4 °F - 66.2 °F 78% 29.92 in 10.0 mi Calm Calm - N/A   Clear
9:55 AM 75.2 °F - 66.2 °F 73% 29.92 in 10.0 mi Calm Calm - N/A   Clear
10:15 AM 75.2 °F - 66.2 °F 73% 29.92 in 10.0 mi Calm Calm - N/A   Clear
10:35 AM 77.0 °F - 66.2 °F 69% 29.92 in 7.0 mi Calm Calm - N/A   Clear
10:55 AM 78.8 °F - 66.2 °F 65% 29.92 in 9.0 mi Calm Calm - N/A   Clear
11:15 AM 80.6 °F 81.8 °F 62.6 °F 54% 29.92 in 10.0 mi SSE 3.5 mph - N/A   Clear
11:35 AM 80.6 °F 81.5 °F 60.8 °F 51% 29.92 in 9.0 mi ESE 3.5 mph - N/A   Clear
11:55 AM 80.6 °F 81.8 °F 62.6 °F 54% 29.92 in 10.0 mi Calm Calm - N/A   Clear
12:15 PM 82.4 °F 82.9 °F 60.8 °F 48% 29.92 in 10.0 mi Calm Calm - N/A   Clear
12:35 PM 82.4 °F 82.9 °F 60.8 °F 48% 29.91 in 10.0 mi Calm Calm - N/A   Clear
12:55 PM 82.4 °F 82.9 °F 60.8 °F 48% 29.91 in 10.0 mi SSE 5.8 mph - N/A   Clear
1:15 PM 82.4 °F 83.9 °F 64.4 °F 54% 29.90 in 10.0 mi SSE 3.5 mph - N/A   Unknown
1:35 PM 82.4 °F 83.9 °F 64.4 °F 54% 29.89 in 2.0 mi SSW 3.5 mph - N/A   Haze
1:55 PM 84.2 °F 85.6 °F 64.4 °F 51% 29.88 in 10.0 mi SE 4.6 mph - N/A   Mostly Cloudy
2:15 PM 82.4 °F 84.6 °F 66.2 °F 58% 29.87 in 10.0 mi Calm Calm - N/A   Mostly Cloudy
2:35 PM 82.4 °F 84.6 °F 66.2 °F 58% 29.87 in 10.0 mi Calm Calm - N/A   Overcast
2:55 PM 82.4 °F 84.6 °F 66.2 °F 58% 29.87 in 10.0 mi Calm Calm - N/A   Overcast
3:15 PM 82.4 °F 85.4 °F 68.0 °F 62% 29.86 in 4.0 mi SSE 4.6 mph - N/A   Haze
3:35 PM 82.4 °F 86.3 °F 69.8 °F 66% 29.85 in 10.0 mi SE 3.5 mph - N/A   Unknown
3:55 PM 82.4 °F 86.3 °F 69.8 °F 66% 29.85 in 10.0 mi Calm Calm - N/A   Unknown
4:15 PM 82.4 °F 86.3 °F 69.8 °F 66% 29.85 in 10.0 mi Calm Calm - N/A   Overcast
4:35 PM 82.4 °F 86.3 °F 69.8 °F 66% 29.85 in 10.0 mi SSE 4.6 mph - N/A   Overcast
4:55 PM 82.4 °F 86.3 °F 69.8 °F 66% 29.85 in 10.0 mi SE 4.6 mph - N/A   Unknown
5:15 PM 82.4 °F 86.3 °F 69.8 °F 66% 29.84 in 10.0 mi Calm Calm - N/A   Unknown
5:35 PM 82.4 °F 87.2 °F 71.6 °F 70% 29.85 in 10.0 mi Calm Calm - N/A   Mostly Cloudy
5:55 PM 80.6 °F 83.9 °F 69.8 °F 70% 29.85 in 10.0 mi Calm Calm - N/A   Mostly Cloudy
6:15 PM 82.4 °F 87.2 °F 71.6 °F 70% 29.85 in 10.0 mi Calm Calm - N/A   Mostly Cloudy
6:35 PM 82.4 °F 87.2 °F 71.6 °F 70% 29.85 in 10.0 mi Calm Calm - N/A   Partly Cloudy
6:55 PM 80.6 °F 84.6 °F 71.6 °F 74% 29.85 in 10.0 mi Calm Calm - N/A   Clear
7:15 PM 77.0 °F - 71.6 °F 83% 29.86 in 10.0 mi Calm Calm - N/A   Clear
7:35 PM 75.2 °F - 71.6 °F 89% 29.86 in 10.0 mi Calm Calm - N/A   Clear
7:55 PM 73.4 °F - 71.6 °F 94% 29.87 in 10.0 mi Calm Calm - N/A   Clear
8:15 PM 73.4 °F - 71.6 °F 94% 29.87 in 10.0 mi Calm Calm - N/A   Clear
8:35 PM 73.4 °F - 71.6 °F 94% 29.87 in 10.0 mi Calm Calm - N/A   Clear
8:55 PM 73.4 °F - 71.6 °F 94% 29.87 in 10.0 mi Calm Calm - N/A   Clear
9:15 PM 71.6 °F - 71.6 °F 100% 29.88 in 10.0 mi Calm Calm - N/A   Clear
9:35 PM 71.6 °F - 71.6 °F 100% 29.88 in 9.0 mi Calm Calm - N/A   Clear
9:55 PM 71.6 °F - 71.6 °F 100% 29.89 in 8.0 mi Calm Calm - N/A   Clear
10:15 PM 71.6 °F - 71.6 °F 100% 29.89 in 7.0 mi Calm Calm - N/A   Clear
10:35 PM 71.6 °F - 71.6 °F 100% 29.89 in 6.0 mi Calm Calm - N/A   Partly Cloudy
10:55 PM 71.6 °F - 71.6 °F 100% 29.89 in 8.0 mi Calm Calm - N/A   Scattered Clouds
11:15 PM 71.6 °F - 71.6 °F 100% 29.89 in 7.0 mi Calm Calm - N/A   Scattered Clouds
11:35 PM 71.6 °F - 71.6 °F 100% 29.89 in 7.0 mi Calm Calm - N/A   Clear
11:55 PM 71.6 °F - 71.6 °F 100% 29.89 in 7.0 mi Calm Calm - N/A   Scattered Clouds